Stations météo

réclame
Mon MeteoGroup
Noervenich/Flugplatz, Allemagne (10502): Température de l'air & dewpoint: 15.07.2019 19:00:00 - 21.07.2019 19:00:00 (CEST)Noervenich/Flugplatz, Allemagne (10502): Vitesse du vent & gusts: 15.07.2019 19:00:00 - 21.07.2019 19:00:00 (CEST)Noervenich/Flugplatz, Allemagne (10502): Direction du vent: 15.07.2019 19:00:00 - 21.07.2019 19:00:00 (CEST)Noervenich/Flugplatz, Allemagne (10502): reduced air pressure: 15.07.2019 19:00:00 - 21.07.2019 19:00:00 (CEST)Noervenich/Flugplatz, Allemagne (10502): visibility: 15.07.2019 19:00:00 - 21.07.2019 19:00:00 (CEST)
Date & Time tt [°C] td [°C] ff [km/h] ff [knt] fx [km/h] fx [knt] dd ppp [hPa] vv [km]
21.07.2019 19:00:00 24,7 11,6 11 6 - - WNW 1021,6 45
21.07.2019 18:00:00 25,0 11,8 18 10 - - W 1021,8 45
21.07.2019 17:00:00 24,7 11,8 14 8 - - WNW 1021,6 45
21.07.2019 16:00:00 24,5 11,6 18 10 - - WNW 1021,8 30
21.07.2019 15:00:00 23,4 11,9 14 8 - - WNW 1022,1 30
21.07.2019 14:00:00 23,6 12,5 18 10 - - WNW 1021,7 30
21.07.2019 13:00:00 22,5 13,3 18 10 - - WNW 1021,6 11
21.07.2019 12:00:00 20,8 14,1 11 6 - - WNW 1021,6 9
21.07.2019 11:00:00 19,3 13,8 11 6 - - WNW 1021,2 11
21.07.2019 10:00:00 18,3 13,8 11 6 - - NW 1020,6 12
21.07.2019 09:00:00 18,3 13,5 22 12 - - W 1019,9 12
21.07.2019 08:00:00 17,4 13,3 18 10 - - W 1019,3 14
21.07.2019 07:00:00 16,4 13,1 7 4 - - WSW 1019,0 15
21.07.2019 06:00:00 15,8 12,8 4 2 - - WSW 1018,0 16
21.07.2019 05:00:00 16,2 12,7 11 6 - - W 1017,3 30
21.07.2019 04:00:00 17,5 13,0 14 8 - - WSW 1016,6 30
21.07.2019 03:00:00 16,7 13,1 18 10 - - W 1016,5 40
21.07.2019 02:00:00 17,6 14,4 7 4 - - WSW 1016,1 40
21.07.2019 01:00:00 18,6 14,7 18 10 - - W 1015,8 40
21.07.2019 00:00:00 19,2 16,3 14 8 - - WSW 1015,5 40
20.07.2019 23:00:00 20,1 16,9 11 6 - - SW 1014,3 40
20.07.2019 22:00:00 20,2 17,3 11 6 - - SW 1013,6 40
20.07.2019 21:00:00 21,3 17,3 4 2 - - N 1012,8 40
20.07.2019 20:00:00 20,1 17,0 7 4 - - S 1012,6 40
20.07.2019 19:00:00 18,5 17,0 7 4 54 29 N 1012,6 30
20.07.2019 18:00:00 23,1 15,0 25 14 54 29 NW 1012,6 15
20.07.2019 17:00:00 28,3 15,0 22 12 - - W 1009,6 40
20.07.2019 16:00:00 27,5 13,3 28 15 - - SW 1010,0 10
20.07.2019 15:00:00 28,2 14,0 25 14 - - W 1010,0 45
20.07.2019 14:00:00 28,1 13,3 22 12 - - WSW 1010,3 45
20.07.2019 13:00:00 27,7 13,1 22 12 - - WSW 1010,3 15
20.07.2019 12:00:00 28,2 13,1 18 10 - - SSW 1010,3 14
20.07.2019 11:00:00 27,2 13,3 14 8 - - SW 1010,5 15
20.07.2019 10:00:00 25,8 14,1 18 10 - - S 1010,8 11
20.07.2019 09:00:00 23,7 14,7 14 8 - - S 1011,0 14
20.07.2019 08:00:00 19,8 14,7 11 6 - - SE 1011,5 14
20.07.2019 07:00:00 17,7 13,4 11 6 - - SE 1011,9 15
20.07.2019 06:00:00 15,9 12,9 7 4 - - N 1012,3 19
20.07.2019 05:00:00 16,3 12,9 7 4 - - SSE 1012,5 30
20.07.2019 04:00:00 17,2 12,9 7 4 - - SSE 1012,9 30
20.07.2019 03:00:00 17,0 12,9 7 4 - - SSE 1013,3 30
20.07.2019 02:00:00 17,9 12,9 7 4 - - S 1013,5 30
20.07.2019 01:00:00 18,5 12,7 7 4 - - S 1013,8 30
20.07.2019 00:00:00 19,2 12,2 11 6 - - S 1014,1 30
19.07.2019 23:00:00 19,9 11,7 7 4 - - S 1014,1 30
19.07.2019 22:00:00 21,6 11,2 7 4 - - SW 1014,0 30
19.07.2019 21:00:00 23,5 10,8 7 4 - - WSW 1013,7 30
19.07.2019 20:00:00 24,3 10,0 7 4 - - SW 1013,5 30
19.07.2019 19:00:00 25,0 9,2 11 6 - - SW 1013,4 30
19.07.2019 18:00:00 24,9 9,7 11 6 - - SSW 1013,7 30
19.07.2019 17:00:00 24,4 9,7 14 8 - - WNW 1014,1 30
19.07.2019 16:00:00 25,2 9,9 14 8 - - W 1014,2 30
19.07.2019 15:00:00 24,0 10,7 11 6 - - NW 1014,3 30
19.07.2019 14:00:00 23,0 11,4 14 8 - - W 1014,5 25
19.07.2019 13:00:00 21,8 12,2 18 10 - - W 1014,6 25
19.07.2019 12:00:00 21,1 11,8 22 12 - - W 1014,9 25
19.07.2019 11:00:00 20,8 11,4 25 14 - - WSW 1014,6 20
19.07.2019 10:00:00 19,9 14,2 18 10 - - W 1014,4 20
19.07.2019 09:00:00 18,7 16,0 7 4 - - W 1014,4 20
19.07.2019 08:00:00 17,2 15,5 4 2 - - N 1014,3 12
19.07.2019 07:00:00 16,6 15,4 7 4 - - S 1013,9 18
19.07.2019 06:00:00 16,5 15,3 7 4 - - S 1013,8 15
19.07.2019 05:00:00 16,4 15,4 7 4 - - N 1014,0 15
19.07.2019 04:00:00 16,7 15,0 11 6 - - SSW 1013,9 10
19.07.2019 03:00:00 17,0 14,5 11 6 - - S 1013,6 20
19.07.2019 02:00:00 18,7 12,9 7 4 - - S 1013,4 20
19.07.2019 01:00:00 19,6 12,9 7 4 - - WSW 1013,4 20
19.07.2019 00:00:00 20,4 12,8 14 8 - - W 1013,1 30
18.07.2019 23:00:00 21,0 12,4 14 8 - - W 1012,8 30
18.07.2019 22:00:00 21,5 11,9 7 4 - - W 1012,3 20
18.07.2019 21:00:00 22,2 11,0 11 6 - - W 1011,8 20
18.07.2019 20:00:00 23,2 11,2 14 8 - - WNW 1011,6 20
18.07.2019 19:00:00 24,3 11,4 22 12 - - W 1011,1 20
18.07.2019 18:00:00 24,9 10,7 11 6 - - W 1011,0 20
18.07.2019 17:00:00 25,1 11,2 18 10 - - W 1011,0 20
18.07.2019 16:00:00 24,4 12,0 14 8 - - NNW 1011,1 20
18.07.2019 15:00:00 24,6 12,0 14 8 - - W 1011,1 20
18.07.2019 14:00:00 26,3 10,3 29 16 - - W 1010,9 20
18.07.2019 13:00:00 26,3 10,4 21 11 - - W 1011,0 10
18.07.2019 12:00:00 24,8 10,3 15 8 - - NW 1011,4 10
18.07.2019 11:00:00 23,3 10,2 11 6 - - W 1011,6 20
18.07.2019 10:00:00 21,6 11,9 7 4 - - SSE 1011,8 20
18.07.2019 09:00:00 18,1 12,4 7 4 - - ESE 1012,0 12
18.07.2019 08:00:00 15,1 11,3 7 4 - - SSE 1012,5 12
18.07.2019 07:00:00 13,0 10,6 7 4 - - SE 1012,4 12
18.07.2019 06:00:00 12,7 9,9 7 4 - - SE 1012,7 10
18.07.2019 05:00:00 13,5 10,5 7 4 - - N 1013,0 10
18.07.2019 04:00:00 13,9 10,6 7 4 - - N 1013,1 10
18.07.2019 03:00:00 14,0 10,8 7 4 - - SSE 1013,5 10
18.07.2019 02:00:00 14,2 11,1 4 2 - - N 1013,7 10
18.07.2019 01:00:00 14,6 11,1 7 4 - - SSE 1013,8 12
18.07.2019 00:00:00 16,0 11,5 7 4 - - SSE 1013,7 15
17.07.2019 23:00:00 17,1 11,3 7 4 - - SSE 1013,9 15
17.07.2019 22:00:00 18,3 11,1 7 4 - - ESE 1013,9 15
17.07.2019 21:00:00 20,2 10,5 7 4 - - E 1013,7 15
17.07.2019 20:00:00 21,2 10,5 7 4 - - ENE 1013,6 15
17.07.2019 19:00:00 21,7 10,5 4 2 - - N 1013,9 11
17.07.2019 18:00:00 21,4 11,2 11 6 - - NE 1014,3 9
17.07.2019 17:00:00 21,5 11,4 11 6 - - NE 1014,9 8
17.07.2019 16:00:00 20,7 11,7 7 4 - - N 1015,3 8
17.07.2019 15:00:00 20,3 11,5 7 4 - - NE 1015,4 8
17.07.2019 14:00:00 19,4 10,9 7 4 - - E 1016,0 8
17.07.2019 13:00:00 18,2 10,5 7 4 - - NNE 1016,4 7
17.07.2019 12:00:00 18,3 11,1 4 2 - - ENE 1016,4 7
17.07.2019 11:00:00 16,9 11,2 4 2 - - SSW 1016,4 7
17.07.2019 10:00:00 15,4 11,3 4 2 - - S 1016,7 7
17.07.2019 09:00:00 13,8 10,6 4 2 - - E 1016,8 5
17.07.2019 08:00:00 12,0 10,0 4 2 - - N 1016,7 3,5
17.07.2019 07:00:00 10,5 9,3 4 2 - - N 1016,9 3,0
17.07.2019 06:00:00 8,6 7,7 0 0 - - N 1017,2 3,0
17.07.2019 05:00:00 8,7 7,5 0 0 - - N 1017,2 15
17.07.2019 04:00:00 9,3 8,3 7 4 - - W 1017,4 15
17.07.2019 03:00:00 10,4 9,1 4 2 - - WSW 1017,5 15
17.07.2019 02:00:00 11,1 9,5 4 2 - - NNW 1017,7 15
17.07.2019 01:00:00 11,8 9,6 7 4 - - WSW 1017,8 15
17.07.2019 00:00:00 13,2 10,1 7 4 - - WSW 1017,9 15
16.07.2019 23:00:00 14,5 10,2 7 4 - - WSW 1018,0 15
16.07.2019 22:00:00 16,0 10,1 7 4 - - WNW 1017,8 15
16.07.2019 21:00:00 17,8 9,8 7 4 - - NNW 1017,9 18
16.07.2019 20:00:00 18,0 9,9 11 6 - - NNW 1017,9 18
16.07.2019 19:00:00 18,9 9,7 11 6 - - NNW 1017,9 18
16.07.2019 18:00:00 18,9 9,8 11 6 - - NW 1018,1 20
16.07.2019 17:00:00 19,2 9,7 11 6 - - NNW 1018,6 22
16.07.2019 16:00:00 18,3 9,5 11 6 - - W 1019,0 22
16.07.2019 15:00:00 17,3 9,0 11 6 - - NW 1019,2 22
16.07.2019 14:00:00 16,3 9,4 14 8 - - NW 1019,7 22
16.07.2019 13:00:00 16,1 9,4 11 6 - - NNW 1019,9 25
16.07.2019 12:00:00 15,4 9,6 11 6 - - NNW 1020,1 25
16.07.2019 11:00:00 14,9 9,2 11 6 - - NNW 1020,2 25
16.07.2019 10:00:00 14,6 9,4 11 6 - - W 1020,0 25
16.07.2019 09:00:00 13,7 9,9 7 4 - - W 1020,2 25
16.07.2019 08:00:00 13,2 9,7 7 4 - - W 1020,1 25
16.07.2019 07:00:00 12,7 9,6 7 4 - - W 1019,8 25
16.07.2019 06:00:00 12,2 9,1 7 4 - - W 1019,6 25
16.07.2019 05:00:00 11,8 8,9 7 4 - - WNW 1019,8 25
16.07.2019 04:00:00 12,4 8,5 7 4 - - NW 1019,8 30
16.07.2019 03:00:00 14,1 9,6 7 4 - - NW 1020,0 30
16.07.2019 02:00:00 15,1 10,9 11 6 - - NW 1020,0 25
16.07.2019 01:00:00 15,0 9,4 11 6 - - W 1019,6 25
16.07.2019 00:00:00 14,7 9,7 11 6 - - W 1019,7 25
15.07.2019 23:00:00 15,8 8,3 11 6 - - W 1019,7 25
15.07.2019 22:00:00 15,2 9,3 7 4 - - W 1019,8 25
15.07.2019 21:00:00 16,6 9,8 11 6 - - WNW 1019,6 25
15.07.2019 20:00:00 16,7 9,9 11 6 - - WNW 1019,6 25
15.07.2019 19:00:00 16,2 9,8 7 4 - - NW 1020,0 25

tt = Température de l'air
td = dewpoint
ff = Vitesse du vent
fx = gusts
dd = Direction du vent
ppp = reduced air pressure
vv = visibility

stations d'obs. à proximité